owner,sensor,date,latitude,longitude,vertical_datum,wind_speed,wind_to_direction,wind_speed_of_gust,qcFlag 
COMPS,ioos:station:USF.COMPS:FHP:1,2017-08-01T00:00:00Z,28.1530,-82.8010,10.0,5.43,80.82,6.46,'1111122,1111122,1111122' 
COMPS,ioos:station:USF.COMPS:FHP:1,2017-08-01T00:06:00Z,28.1530,-82.8010,10.0,4.94,80.45,7.15,'1111122,1111122,1111122' 
COMPS,ioos:station:USF.COMPS:FHP:1,2017-08-01T00:12:00Z,28.1530,-82.8010,10.0,5.22,79.91,7.64,'1111122,1111122,1111122' 
COMPS,ioos:station:USF.COMPS:FHP:1,2017-08-01T00:18:00Z,28.1530,-82.8010,10.0,4.2,83.59,5.09,'1111122,1111122,1111122' 
COMPS,ioos:station:USF.COMPS:FHP:1,2017-08-01T00:24:00Z,28.1530,-82.8010,10.0,3.92,75.74,5.39,'1111122,1111122,1111122' 
COMPS,ioos:station:USF.COMPS:FHP:1,2017-08-01T00:30:00Z,28.1530,-82.8010,10.0,3.34,79.55,4.31,'1111122,1111122,1111122' 
COMPS,ioos:station:USF.COMPS:FHP:1,2017-08-01T00:36:00Z,28.1530,-82.8010,10.0,3.33,73.88,4.31,'1111122,1111122,1111122' 
COMPS,ioos:station:USF.COMPS:FHP:1,2017-08-01T00:42:00Z,28.1530,-82.8010,10.0,3.9,63.98,4.7,'1111122,1111122,1111122' 
COMPS,ioos:station:USF.COMPS:FHP:1,2017-08-01T00:48:00Z,28.1530,-82.8010,10.0,3.59,69.78,4.31,'1111122,1111122,1111122' 
COMPS,ioos:station:USF.COMPS:FHP:1,2017-08-01T00:54:00Z,28.1530,-82.8010,10.0,3.58,71.17,4.41,'1111122,1111122,1111122' 
COMPS,ioos:station:USF.COMPS:FHP:1,2017-08-01T01:00:00Z,28.1530,-82.8010,10.0,3.2,68.89,3.72,'1111122,1111122,1111122' 
COMPS,ioos:station:USF.COMPS:FHP:1,2017-08-01T01:06:00Z,28.1530,-82.8010,10.0,3.08,67.32,4.21,'1111122,1111122,1111122' 
COMPS,ioos:station:USF.COMPS:FHP:1,2017-08-01T01:12:00Z,28.1530,-82.8010,10.0,3.25,77.32,4.01,'1111122,1111122,1111122' 
COMPS,ioos:station:USF.COMPS:FHP:1,2017-08-01T01:18:00Z,28.1530,-82.8010,10.0,3.08,80.08,4.21,'1111122,1111122,1111122' 
COMPS,ioos:station:USF.COMPS:FHP:1,2017-08-01T01:24:00Z,28.1530,-82.8010,10.0,3.35,81.19,5.58,'1111122,1111122,1111122' 
COMPS,ioos:station:USF.COMPS:FHP:1,2017-08-01T01:30:00Z,28.1530,-82.8010,10.0,4.16,86.97,5.09,'1111122,1111122,1111122' 
COMPS,ioos:station:USF.COMPS:FHP:1,2017-08-01T01:36:00Z,28.1530,-82.8010,10.0,4.53,75.25,5.78,'1111122,1111122,1111122' 
COMPS,ioos:station:USF.COMPS:FHP:1,2017-08-01T01:42:00Z,28.1530,-82.8010,10.0,4.2,65.58,4.99,'1111122,1111122,1111122' 
COMPS,ioos:station:USF.COMPS:FHP:1,2017-08-01T01:48:00Z,28.1530,-82.8010,10.0,3.45,60.25,4.7,'1111122,1111122,1111122' 
COMPS,ioos:station:USF.COMPS:FHP:1,2017-08-01T01:54:00Z,28.1530,-82.8010,10.0,3.48,66.64,3.91,'1111122,1111122,1111122' 
COMPS,ioos:station:USF.COMPS:FHP:1,2017-08-01T02:00:00Z,28.1530,-82.8010,10.0,3.07,72.22,3.82,'1111122,1111122,1111122' 
COMPS,ioos:station:USF.COMPS:FHP:1,2017-08-01T02:06:00Z,28.1530,-82.8010,10.0,3.01,71.19,4.21,'1111122,1111122,1111122' 
COMPS,ioos:station:USF.COMPS:FHP:1,2017-08-01T02:12:00Z,28.1530,-82.8010,10.0,3.33,63.64,4.31,'1111122,1111122,1111122' 
COMPS,ioos:station:USF.COMPS:FHP:1,2017-08-01T02:18:00Z,28.1530,-82.8010,10.0,3.52,63.64,5.09,'1111122,1111122,1111122' 
COMPS,ioos:station:USF.COMPS:FHP:1,2017-08-01T02:24:00Z,28.1530,-82.8010,10.0,6.1,64.42,8.03,'1111122,1111122,1111122' 
COMPS,ioos:station:USF.COMPS:FHP:1,2017-08-01T02:30:00Z,28.1530,-82.8010,10.0,5.92,63.08,7.64,'1111122,1111122,1111122' 
COMPS,ioos:station:USF.COMPS:FHP:1,2017-08-01T02:36:00Z,28.1530,-82.8010,10.0,4.8,60.35,6.37,'1111122,1111122,1111122' 
COMPS,ioos:station:USF.COMPS:FHP:1,2017-08-01T02:42:00Z,28.1530,-82.8010,10.0,4.81,59.6,5.48,'1111122,1111122,1111122' 
COMPS,ioos:station:USF.COMPS:FHP:1,2017-08-01T02:48:00Z,28.1530,-82.8010,10.0,4.38,57.32,6.17,'1111122,1111122,1111122' 
COMPS,ioos:station:USF.COMPS:FHP:1,2017-08-01T02:54:00Z,28.1530,-82.8010,10.0,4.55,51.33,5.68,'1111122,1111122,1111122' 
COMPS,ioos:station:USF.COMPS:FHP:1,2017-08-01T03:00:00Z,28.1530,-82.8010,10.0,4.99,49.01,7.35,'1111122,1111122,1111122' 
COMPS,ioos:station:USF.COMPS:FHP:1,2017-08-01T03:06:00Z,28.1530,-82.8010,10.0,4.59,46.06,5.58,'1111122,1111122,1111122' 
COMPS,ioos:station:USF.COMPS:FHP:1,2017-08-01T03:12:00Z,28.1530,-82.8010,10.0,4.06,46.07,5.78,'1111122,1111122,1111122' 
COMPS,ioos:station:USF.COMPS:FHP:1,2017-08-01T03:18:00Z,28.1530,-82.8010,10.0,4.46,47.85,5.87,'1111122,1111122,1111122' 
COMPS,ioos:station:USF.COMPS:FHP:1,2017-08-01T03:24:00Z,28.1530,-82.8010,10.0,5.0,48.6,7.44,'1111122,1111122,1111122' 
COMPS,ioos:station:USF.COMPS:FHP:1,2017-08-01T03:30:00Z,28.1530,-82.8010,10.0,4.92,50.27,6.07,'1111122,1111122,1111122' 
COMPS,ioos:station:USF.COMPS:FHP:1,2017-08-01T03:36:00Z,28.1530,-82.8010,10.0,4.44,50.06,5.68,'1111122,1111122,1111122' 
COMPS,ioos:station:USF.COMPS:FHP:1,2017-08-01T03:42:00Z,28.1530,-82.8010,10.0,4.25,44.38,5.78,'1111122,1111122,1111122' 
COMPS,ioos:station:USF.COMPS:FHP:1,2017-08-01T03:48:00Z,28.1530,-82.8010,10.0,4.46,46.94,6.37,'1111122,1111122,1111122' 
COMPS,ioos:station:USF.COMPS:FHP:1,2017-08-01T03:54:00Z,28.1530,-82.8010,10.0,4.7,45.96,5.87,'1111122,1111122,1111122' 
COMPS,ioos:station:USF.COMPS:FHP:1,2017-08-01T04:00:00Z,28.1530,-82.8010,10.0,4.77,47.01,5.78,'1111122,1111122,1111122' 
COMPS,ioos:station:USF.COMPS:FHP:1,2017-08-01T04:06:00Z,28.1530,-82.8010,10.0,5.43,54.26,6.95,'1111122,1111122,1111122' 
COMPS,ioos:station:USF.COMPS:FHP:1,2017-08-01T04:12:00Z,28.1530,-82.8010,10.0,5.62,56.08,6.56,'1111122,1111122,1111122' 
COMPS,ioos:station:USF.COMPS:FHP:1,2017-08-01T04:18:00Z,28.1530,-82.8010,10.0,5.08,53.94,6.17,'1111122,1111122,1111122' 
COMPS,ioos:station:USF.COMPS:FHP:1,2017-08-01T04:24:00Z,28.1530,-82.8010,10.0,4.92,51.98,5.97,'1111122,1111122,1111122' 
COMPS,ioos:station:USF.COMPS:FHP:1,2017-08-01T04:30:00Z,28.1530,-82.8010,10.0,4.33,47.74,5.39,'1111122,1111122,1111122' 
COMPS,ioos:station:USF.COMPS:FHP:1,2017-08-01T04:36:00Z,28.1530,-82.8010,10.0,3.59,40.43,4.5,'1111122,1111122,1111122' 
COMPS,ioos:station:USF.COMPS:FHP:1,2017-08-01T04:42:00Z,28.1530,-82.8010,10.0,3.4,40.82,5.09,'1111122,1111122,1111122' 
COMPS,ioos:station:USF.COMPS:FHP:1,2017-08-01T04:48:00Z,28.1530,-82.8010,10.0,3.69,41.69,5.58,'1111122,1111122,1111122' 
COMPS,ioos:station:USF.COMPS:FHP:1,2017-08-01T04:54:00Z,28.1530,-82.8010,10.0,3.94,45.31,4.99,'1111122,1111122,1111122' 
COMPS,ioos:station:USF.COMPS:FHP:1,2017-08-01T05:00:00Z,28.1530,-82.8010,10.0,4.34,46.38,5.78,'1111122,1111122,1111122' 
COMPS,ioos:station:USF.COMPS:FHP:1,2017-08-01T05:06:00Z,28.1530,-82.8010,10.0,4.42,47.38,5.48,'1111122,1111122,1111122' 
COMPS,ioos:station:USF.COMPS:FHP:1,2017-08-01T05:12:00Z,28.1530,-82.8010,10.0,4.25,45.95,5.78,'1111122,1111122,1111122' 
COMPS,ioos:station:USF.COMPS:FHP:1,2017-08-01T05:18:00Z,28.1530,-82.8010,10.0,4.45,44.41,5.87,'1111122,1111122,1111122' 
COMPS,ioos:station:USF.COMPS:FHP:1,2017-08-01T05:24:00Z,28.1530,-82.8010,10.0,4.78,43.96,5.97,'1111122,1111122,1111122' 
COMPS,ioos:station:USF.COMPS:FHP:1,2017-08-01T05:30:00Z,28.1530,-82.8010,10.0,4.1,46.37,5.58,'1111122,1111122,1111122' 
COMPS,ioos:station:USF.COMPS:FHP:1,2017-08-01T05:36:00Z,28.1530,-82.8010,10.0,4.17,45.93,5.09,'1111122,1111122,1111122' 
COMPS,ioos:station:USF.COMPS:FHP:1,2017-08-01T05:42:00Z,28.1530,-82.8010,10.0,3.22,41.38,4.11,'1111122,1111122,1111122' 
COMPS,ioos:station:USF.COMPS:FHP:1,2017-08-01T05:48:00Z,28.1530,-82.8010,10.0,3.14,39.91,4.01,'1111122,1111122,1111122' 
COMPS,ioos:station:USF.COMPS:FHP:1,2017-08-01T05:54:00Z,28.1530,-82.8010,10.0,3.37,42.02,4.6,'1111122,1111122,1111122' 
COMPS,ioos:station:USF.COMPS:FHP:1,2017-08-01T06:00:00Z,28.1530,-82.8010,10.0,3.47,47.65,4.21,'1111122,1111122,1111122' 
COMPS,ioos:station:USF.COMPS:FHP:1,2017-08-01T06:06:00Z,28.1530,-82.8010,10.0,3.45,48.31,4.5,'1111122,1111122,1111122' 
COMPS,ioos:station:USF.COMPS:FHP:1,2017-08-01T06:12:00Z,28.1530,-82.8010,10.0,3.46,45.38,4.8,'1111122,1111122,1111122' 
COMPS,ioos:station:USF.COMPS:FHP:1,2017-08-01T06:18:00Z,28.1530,-82.8010,10.0,3.68,47.06,5.39,'1111122,1111122,1111122' 
COMPS,ioos:station:USF.COMPS:FHP:1,2017-08-01T06:24:00Z,28.1530,-82.8010,10.0,3.13,44.43,4.41,'1111122,1111122,1111122' 
COMPS,ioos:station:USF.COMPS:FHP:1,2017-08-01T06:30:00Z,28.1530,-82.8010,10.0,3.06,44.1,4.21,'1111122,1111122,1111122' 
COMPS,ioos:station:USF.COMPS:FHP:1,2017-08-01T06:36:00Z,28.1530,-82.8010,10.0,3.11,46.56,4.01,'1111122,1111122,1111122' 
COMPS,ioos:station:USF.COMPS:FHP:1,2017-08-01T06:42:00Z,28.1530,-82.8010,10.0,3.24,55.13,3.82,'1111122,1111122,1111122' 
COMPS,ioos:station:USF.COMPS:FHP:1,2017-08-01T06:48:00Z,28.1530,-82.8010,10.0,2.99,58.48,3.72,'1111122,1111122,1111122' 
COMPS,ioos:station:USF.COMPS:FHP:1,2017-08-01T06:54:00Z,28.1530,-82.8010,10.0,2.99,50.91,4.21,'1111122,1111122,1111122' 
COMPS,ioos:station:USF.COMPS:FHP:1,2017-08-01T07:00:00Z,28.1530,-82.8010,10.0,2.88,53.98,3.62,'1111122,1111122,1111122' 
COMPS,ioos:station:USF.COMPS:FHP:1,2017-08-01T07:06:00Z,28.1530,-82.8010,10.0,2.5,55.73,3.72,'1111122,1111122,1111122' 
COMPS,ioos:station:USF.COMPS:FHP:1,2017-08-01T07:12:00Z,28.1530,-82.8010,10.0,2.78,65.5,3.33,'1111122,1111122,1111122' 
COMPS,ioos:station:USF.COMPS:FHP:1,2017-08-01T07:18:00Z,28.1530,-82.8010,10.0,2.18,64.87,2.74,'1111122,1111122,1111122' 
COMPS,ioos:station:USF.COMPS:FHP:1,2017-08-01T07:24:00Z,28.1530,-82.8010,10.0,2.71,60.59,3.42,'1111122,1111122,1111122' 
COMPS,ioos:station:USF.COMPS:FHP:1,2017-08-01T07:30:00Z,28.1530,-82.8010,10.0,3.0,54.71,3.72,'1111122,1111122,1111122' 
COMPS,ioos:station:USF.COMPS:FHP:1,2017-08-01T07:36:00Z,28.1530,-82.8010,10.0,3.52,58.8,4.21,'1111122,1111122,1111122' 
COMPS,ioos:station:USF.COMPS:FHP:1,2017-08-01T07:42:00Z,28.1530,-82.8010,10.0,3.19,54.7,4.21,'1111122,1111122,1111122' 
COMPS,ioos:station:USF.COMPS:FHP:1,2017-08-01T07:48:00Z,28.1530,-82.8010,10.0,3.19,57.39,4.31,'1111122,1111122,1111122' 
COMPS,ioos:station:USF.COMPS:FHP:1,2017-08-01T07:54:00Z,28.1530,-82.8010,10.0,3.04,64.06,3.72,'1111122,1111122,1111122' 
COMPS,ioos:station:USF.COMPS:FHP:1,2017-08-01T08:00:00Z,28.1530,-82.8010,10.0,2.97,68.0,3.72,'1111122,1111122,1111122' 
COMPS,ioos:station:USF.COMPS:FHP:1,2017-08-01T08:06:00Z,28.1530,-82.8010,10.0,3.0,66.88,3.62,'1111122,1111122,1111122' 
COMPS,ioos:station:USF.COMPS:FHP:1,2017-08-01T08:12:00Z,28.1530,-82.8010,10.0,3.34,69.84,4.9,'1111122,1111122,1111122' 
COMPS,ioos:station:USF.COMPS:FHP:1,2017-08-01T08:18:00Z,28.1530,-82.8010,10.0,2.94,63.29,4.31,'1111122,1111122,1111122' 
COMPS,ioos:station:USF.COMPS:FHP:1,2017-08-01T08:24:00Z,28.1530,-82.8010,10.0,2.68,56.76,3.52,'1111122,1111122,1111122' 
COMPS,ioos:station:USF.COMPS:FHP:1,2017-08-01T08:30:00Z,28.1530,-82.8010,10.0,2.53,63.77,3.91,'1111122,1111122,1111122' 
COMPS,ioos:station:USF.COMPS:FHP:1,2017-08-01T08:36:00Z,28.1530,-82.8010,10.0,2.62,64.88,3.62,'1111122,1111122,1111122' 
COMPS,ioos:station:USF.COMPS:FHP:1,2017-08-01T08:42:00Z,28.1530,-82.8010,10.0,2.96,63.97,3.82,'1111122,1111122,1111122' 
COMPS,ioos:station:USF.COMPS:FHP:1,2017-08-01T08:48:00Z,28.1530,-82.8010,10.0,2.65,70.03,3.72,'1111122,1111122,1111122' 
COMPS,ioos:station:USF.COMPS:FHP:1,2017-08-01T08:54:00Z,28.1530,-82.8010,10.0,1.79,66.07,3.33,'1111122,1111122,1111122' 
COMPS,ioos:station:USF.COMPS:FHP:1,2017-08-01T09:00:00Z,28.1530,-82.8010,10.0,1.81,60.87,2.54,'1111122,1111122,1111122' 
COMPS,ioos:station:USF.COMPS:FHP:1,2017-08-01T09:06:00Z,28.1530,-82.8010,10.0,2.39,66.13,3.13,'1111122,1111122,1111122' 
COMPS,ioos:station:USF.COMPS:FHP:1,2017-08-01T09:12:00Z,28.1530,-82.8010,10.0,2.32,78.1,2.93,'1111122,1111122,1111122' 
COMPS,ioos:station:USF.COMPS:FHP:1,2017-08-01T09:18:00Z,28.1530,-82.8010,10.0,1.78,51.45,2.54,'1111122,1111122,1111122' 
COMPS,ioos:station:USF.COMPS:FHP:1,2017-08-01T09:24:00Z,28.1530,-82.8010,10.0,2.23,51.01,3.33,'1111122,1111122,1111122' 
COMPS,ioos:station:USF.COMPS:FHP:1,2017-08-01T09:30:00Z,28.1530,-82.8010,10.0,2.13,58.73,2.74,'1111122,1111122,1111122' 
COMPS,ioos:station:USF.COMPS:FHP:1,2017-08-01T09:36:00Z,28.1530,-82.8010,10.0,2.24,61.88,3.13,'1111122,1111122,1111122' 
COMPS,ioos:station:USF.COMPS:FHP:1,2017-08-01T09:42:00Z,28.1530,-82.8010,10.0,1.98,68.43,2.84,'1111122,1111122,1111122' 
COMPS,ioos:station:USF.COMPS:FHP:1,2017-08-01T09:48:00Z,28.1530,-82.8010,10.0,1.67,79.43,2.45,'1111122,1111122,1111122' 
COMPS,ioos:station:USF.COMPS:FHP:1,2017-08-01T09:54:00Z,28.1530,-82.8010,10.0,1.48,80.11,2.54,'1111122,1111122,1111122' 
COMPS,ioos:station:USF.COMPS:FHP:1,2017-08-01T10:00:00Z,28.1530,-82.8010,10.0,1.76,74.86,2.54,'1111122,1111122,1111122' 
COMPS,ioos:station:USF.COMPS:FHP:1,2017-08-01T10:06:00Z,28.1530,-82.8010,10.0,1.59,71.24,2.25,'1111122,1111122,1111122' 
COMPS,ioos:station:USF.COMPS:FHP:1,2017-08-01T10:12:00Z,28.1530,-82.8010,10.0,1.38,60.23,2.15,'1111122,1111122,1111122' 
COMPS,ioos:station:USF.COMPS:FHP:1,2017-08-01T10:18:00Z,28.1530,-82.8010,10.0,1.04,43.8,1.76,'1111122,1111122,1111122' 
COMPS,ioos:station:USF.COMPS:FHP:1,2017-08-01T10:24:00Z,28.1530,-82.8010,10.0,1.44,36.83,2.05,'1111122,1111122,1111122' 
COMPS,ioos:station:USF.COMPS:FHP:1,2017-08-01T10:30:00Z,28.1530,-82.8010,10.0,1.59,39.72,2.64,'1111122,1111122,1111122' 
COMPS,ioos:station:USF.COMPS:FHP:1,2017-08-01T10:36:00Z,28.1530,-82.8010,10.0,1.64,45.23,2.54,'1111122,1111122,1111122' 
COMPS,ioos:station:USF.COMPS:FHP:1,2017-08-01T10:42:00Z,28.1530,-82.8010,10.0,1.61,51.62,2.25,'1111122,1111122,1111122' 
COMPS,ioos:station:USF.COMPS:FHP:1,2017-08-01T10:48:00Z,28.1530,-82.8010,10.0,1.57,67.07,2.35,'1111122,1111122,1111122' 
COMPS,ioos:station:USF.COMPS:FHP:1,2017-08-01T10:54:00Z,28.1530,-82.8010,10.0,1.57,60.6,2.54,'1111122,1111122,1111122' 
COMPS,ioos:station:USF.COMPS:FHP:1,2017-08-01T11:00:00Z,28.1530,-82.8010,10.0,1.7,60.27,2.45,'1111122,1111122,1111122' 
COMPS,ioos:station:USF.COMPS:FHP:1,2017-08-01T11:06:00Z,28.1530,-82.8010,10.0,1.99,61.89,2.84,'1111122,1111122,1111122' 
COMPS,ioos:station:USF.COMPS:FHP:1,2017-08-01T11:12:00Z,28.1530,-82.8010,10.0,2.22,72.0,2.84,'1111122,1111122,1111122' 
COMPS,ioos:station:USF.COMPS:FHP:1,2017-08-01T11:18:00Z,28.1530,-82.8010,10.0,1.63,93.1,2.54,'1111122,1111122,1111122' 
COMPS,ioos:station:USF.COMPS:FHP:1,2017-08-01T11:24:00Z,28.1530,-82.8010,10.0,1.1,89.71,1.95,'1111122,1111122,1111122' 
COMPS,ioos:station:USF.COMPS:FHP:1,2017-08-01T11:30:00Z,28.1530,-82.8010,10.0,1.06,103.68,1.66,'1111122,1111122,1111122' 
COMPS,ioos:station:USF.COMPS:FHP:1,2017-08-01T11:36:00Z,28.1530,-82.8010,10.0,0.88,101.21,1.56,'1111122,1111122,1111122' 
COMPS,ioos:station:USF.COMPS:FHP:1,2017-08-01T11:42:00Z,28.1530,-82.8010,10.0,1.23,92.81,1.95,'1111122,1111122,1111122' 
COMPS,ioos:station:USF.COMPS:FHP:1,2017-08-01T11:48:00Z,28.1530,-82.8010,10.0,1.33,69.74,2.05,'1111122,1111122,1111122' 
COMPS,ioos:station:USF.COMPS:FHP:1,2017-08-01T11:54:00Z,28.1530,-82.8010,10.0,1.56,71.84,2.35,'1111122,1111122,1111122' 
COMPS,ioos:station:USF.COMPS:FHP:1,2017-08-01T12:00:00Z,28.1530,-82.8010,10.0,2.16,66.93,3.13,'1111122,1111122,1111122' 
COMPS,ioos:station:USF.COMPS:FHP:1,2017-08-01T12:06:00Z,28.1530,-82.8010,10.0,2.42,61.14,3.33,'1111122,1111122,1111122' 
COMPS,ioos:station:USF.COMPS:FHP:1,2017-08-01T12:12:00Z,28.1530,-82.8010,10.0,2.26,60.22,3.42,'1111122,1111122,1111122' 
COMPS,ioos:station:USF.COMPS:FHP:1,2017-08-01T12:18:00Z,28.1530,-82.8010,10.0,1.63,61.04,2.45,'1111122,1111122,1111122' 
COMPS,ioos:station:USF.COMPS:FHP:1,2017-08-01T12:24:00Z,28.1530,-82.8010,10.0,2.03,66.84,2.64,'1111122,1111122,1111122' 
COMPS,ioos:station:USF.COMPS:FHP:1,2017-08-01T12:30:00Z,28.1530,-82.8010,10.0,2.41,66.97,3.23,'1111122,1111122,1111122' 
COMPS,ioos:station:USF.COMPS:FHP:1,2017-08-01T12:36:00Z,28.1530,-82.8010,10.0,2.62,73.1,3.82,'1111122,1111122,1111122' 
COMPS,ioos:station:USF.COMPS:FHP:1,2017-08-01T12:42:00Z,28.1530,-82.8010,10.0,3.46,70.19,4.7,'1111122,1111122,1111122' 
COMPS,ioos:station:USF.COMPS:FHP:1,2017-08-01T12:48:00Z,28.1530,-82.8010,10.0,3.76,70.48,5.09,'1111122,1111122,1111122' 
COMPS,ioos:station:USF.COMPS:FHP:1,2017-08-01T12:54:00Z,28.1530,-82.8010,10.0,2.96,52.26,3.91,'1111122,1111122,1111122' 
COMPS,ioos:station:USF.COMPS:FHP:1,2017-08-01T13:00:00Z,28.1530,-82.8010,10.0,3.38,48.08,4.21,'1111122,1111122,1111122' 
COMPS,ioos:station:USF.COMPS:FHP:1,2017-08-01T13:06:00Z,28.1530,-82.8010,10.0,3.36,53.72,4.01,'1111122,1111122,1111122' 
COMPS,ioos:station:USF.COMPS:FHP:1,2017-08-01T13:12:00Z,28.1530,-82.8010,10.0,2.7,59.15,3.72,'1111122,1111122,1111122' 
COMPS,ioos:station:USF.COMPS:FHP:1,2017-08-01T13:18:00Z,28.1530,-82.8010,10.0,3.07,73.32,3.91,'1111122,1111122,1111122' 
COMPS,ioos:station:USF.COMPS:FHP:1,2017-08-01T13:24:00Z,28.1530,-82.8010,10.0,2.7,62.99,3.82,'1111122,1111122,1111122' 
COMPS,ioos:station:USF.COMPS:FHP:1,2017-08-01T13:30:00Z,28.1530,-82.8010,10.0,2.3,79.8,3.13,'1111122,1111122,1111122' 
COMPS,ioos:station:USF.COMPS:FHP:1,2017-08-01T13:36:00Z,28.1530,-82.8010,10.0,2.0,74.26,3.13,'1111122,1111122,1111122' 
COMPS,ioos:station:USF.COMPS:FHP:1,2017-08-01T13:42:00Z,28.1530,-82.8010,10.0,2.36,63.14,3.33,'1111122,1111122,1111122' 
COMPS,ioos:station:USF.COMPS:FHP:1,2017-08-01T13:48:00Z,28.1530,-82.8010,10.0,2.53,55.96,3.13,'1111122,1111122,1111122' 
COMPS,ioos:station:USF.COMPS:FHP:1,2017-08-01T13:54:00Z,28.1530,-82.8010,10.0,1.69,94.06,2.84,'1111122,1111122,1111122' 
COMPS,ioos:station:USF.COMPS:FHP:1,2017-08-01T14:00:00Z,28.1530,-82.8010,10.0,1.51,105.28,2.05,'1111122,1111122,1111122' 
COMPS,ioos:station:USF.COMPS:FHP:1,2017-08-01T14:06:00Z,28.1530,-82.8010,10.0,1.29,116.99,2.05,'1111122,1111122,1111122' 
COMPS,ioos:station:USF.COMPS:FHP:1,2017-08-01T14:12:00Z,28.1530,-82.8010,10.0,1.68,123.02,2.35,'1111122,1111122,1111122' 
COMPS,ioos:station:USF.COMPS:FHP:1,2017-08-01T14:18:00Z,28.1530,-82.8010,10.0,1.88,116.67,3.13,'1111122,1111122,1111122' 
COMPS,ioos:station:USF.COMPS:FHP:1,2017-08-01T14:24:00Z,28.1530,-82.8010,10.0,1.4,107.83,2.84,'1111122,1111122,1111122' 
COMPS,ioos:station:USF.COMPS:FHP:1,2017-08-01T14:30:00Z,28.1530,-82.8010,10.0,0.87,156.32,1.56,'1111122,1111122,1111122' 
COMPS,ioos:station:USF.COMPS:FHP:1,2017-08-01T14:36:00Z,28.1530,-82.8010,10.0,0.5,164.74,1.56,'1111122,1111122,1111122' 
COMPS,ioos:station:USF.COMPS:FHP:1,2017-08-01T14:42:00Z,28.1530,-82.8010,10.0,1.87,147.85,2.84,'1111122,1111122,1111122' 
COMPS,ioos:station:USF.COMPS:FHP:1,2017-08-01T14:48:00Z,28.1530,-82.8010,10.0,1.82,159.68,2.74,'1111122,1111122,1111122' 
COMPS,ioos:station:USF.COMPS:FHP:1,2017-08-01T14:54:00Z,28.1530,-82.8010,10.0,1.79,127.77,2.74,'1111122,1111122,1111122' 
COMPS,ioos:station:USF.COMPS:FHP:1,2017-08-01T15:00:00Z,28.1530,-82.8010,10.0,1.39,138.5,2.05,'1111122,1111122,1111122' 
COMPS,ioos:station:USF.COMPS:FHP:1,2017-08-01T15:06:00Z,28.1530,-82.8010,10.0,2.0,125.21,2.84,'1111122,1111122,1111122' 
COMPS,ioos:station:USF.COMPS:FHP:1,2017-08-01T15:12:00Z,28.1530,-82.8010,10.0,1.46,124.01,2.64,'1111122,1111122,1111122' 
COMPS,ioos:station:USF.COMPS:FHP:1,2017-08-01T15:18:00Z,28.1530,-82.8010,10.0,1.21,203.29,2.25,'1111122,1111122,1111122' 
COMPS,ioos:station:USF.COMPS:FHP:1,2017-08-01T15:24:00Z,28.1530,-82.8010,10.0,1.52,248.46,1.86,'1111122,1111122,1111122' 
COMPS,ioos:station:USF.COMPS:FHP:1,2017-08-01T15:30:00Z,28.1530,-82.8010,10.0,1.73,261.28,2.25,'1111122,1111122,1111122' 
COMPS,ioos:station:USF.COMPS:FHP:1,2017-08-01T15:36:00Z,28.1530,-82.8010,10.0,1.77,282.95,2.64,'1111122,1111122,1111122' 
COMPS,ioos:station:USF.COMPS:FHP:1,2017-08-01T15:42:00Z,28.1530,-82.8010,10.0,1.89,284.23,2.35,'1111122,1111122,1111122' 
COMPS,ioos:station:USF.COMPS:FHP:1,2017-08-01T15:48:00Z,28.1530,-82.8010,10.0,2.25,300.13,2.84,'1111122,1111122,1111122' 
COMPS,ioos:station:USF.COMPS:FHP:1,2017-08-01T15:54:00Z,28.1530,-82.8010,10.0,2.38,298.27,3.13,'1111122,1111122,1111122' 
COMPS,ioos:station:USF.COMPS:FHP:1,2017-08-01T16:00:00Z,28.1530,-82.8010,10.0,2.77,302.85,3.62,'1111122,1111122,1111122' 
COMPS,ioos:station:USF.COMPS:FHP:1,2017-08-01T16:06:00Z,28.1530,-82.8010,10.0,2.77,302.43,3.33,'1111122,1111122,1111122' 
COMPS,ioos:station:USF.COMPS:FHP:1,2017-08-01T16:12:00Z,28.1530,-82.8010,10.0,2.4,299.59,3.13,'1111122,1111122,1111122' 
COMPS,ioos:station:USF.COMPS:FHP:1,2017-08-01T16:18:00Z,28.1530,-82.8010,10.0,2.24,299.28,3.23,'1111122,1111122,1111122' 
COMPS,ioos:station:USF.COMPS:FHP:1,2017-08-01T16:24:00Z,28.1530,-82.8010,10.0,2.86,292.69,3.52,'1111122,1111122,1111122' 
COMPS,ioos:station:USF.COMPS:FHP:1,2017-08-01T16:30:00Z,28.1530,-82.8010,10.0,2.97,286.62,3.82,'1111122,1111122,1111122' 
COMPS,ioos:station:USF.COMPS:FHP:1,2017-08-01T16:36:00Z,28.1530,-82.8010,10.0,3.17,291.98,4.01,'1111122,1111122,1111122' 
COMPS,ioos:station:USF.COMPS:FHP:1,2017-08-01T16:42:00Z,28.1530,-82.8010,10.0,3.06,294.54,3.72,'1111122,1111122,1111122' 
COMPS,ioos:station:USF.COMPS:FHP:1,2017-08-01T16:48:00Z,28.1530,-82.8010,10.0,2.86,304.01,3.82,'1111122,1111122,1111122' 
COMPS,ioos:station:USF.COMPS:FHP:1,2017-08-01T16:54:00Z,28.1530,-82.8010,10.0,3.15,303.56,3.82,'1111122,1111122,1111122' 
COMPS,ioos:station:USF.COMPS:FHP:1,2017-08-01T17:00:00Z,28.1530,-82.8010,10.0,3.25,326.63,3.91,'1111122,1111122,1111122' 
COMPS,ioos:station:USF.COMPS:FHP:1,2017-08-01T17:06:00Z,28.1530,-82.8010,10.0,2.93,329.65,3.52,'1111122,1111122,1111122' 
COMPS,ioos:station:USF.COMPS:FHP:1,2017-08-01T17:12:00Z,28.1530,-82.8010,10.0,2.95,332.9,3.42,'1111122,1111122,1111122' 
COMPS,ioos:station:USF.COMPS:FHP:1,2017-08-01T17:18:00Z,28.1530,-82.8010,10.0,2.86,331.31,3.42,'1111122,1111122,1111122' 
COMPS,ioos:station:USF.COMPS:FHP:1,2017-08-01T17:24:00Z,28.1530,-82.8010,10.0,3.08,331.19,3.52,'1111122,1111122,1111122' 
COMPS,ioos:station:USF.COMPS:FHP:1,2017-08-01T17:30:00Z,28.1530,-82.8010,10.0,3.25,328.86,3.82,'1111122,1111122,1111122' 
COMPS,ioos:station:USF.COMPS:FHP:1,2017-08-01T17:36:00Z,28.1530,-82.8010,10.0,2.97,325.28,3.52,'1111122,1111122,1111122' 
COMPS,ioos:station:USF.COMPS:FHP:1,2017-08-01T17:42:00Z,28.1530,-82.8010,10.0,3.07,327.36,3.82,'1111122,1111122,1111122' 
COMPS,ioos:station:USF.COMPS:FHP:1,2017-08-01T17:48:00Z,28.1530,-82.8010,10.0,2.88,318.18,3.62,'1111122,1111122,1111122' 
COMPS,ioos:station:USF.COMPS:FHP:1,2017-08-01T17:54:00Z,28.1530,-82.8010,10.0,2.85,315.26,3.42,'1111122,1111122,1111122' 
COMPS,ioos:station:USF.COMPS:FHP:1,2017-08-01T18:00:00Z,28.1530,-82.8010,10.0,3.03,317.56,4.01,'1111122,1111122,1111122' 
COMPS,ioos:station:USF.COMPS:FHP:1,2017-08-01T18:06:00Z,28.1530,-82.8010,10.0,3.32,323.97,3.91,'1111122,1111122,1111122' 
COMPS,ioos:station:USF.COMPS:FHP:1,2017-08-01T18:12:00Z,28.1530,-82.8010,10.0,3.56,332.23,4.01,'1111122,1111122,1111122' 
COMPS,ioos:station:USF.COMPS:FHP:1,2017-08-01T18:18:00Z,28.1530,-82.8010,10.0,3.74,328.63,4.6,'1111122,1111122,1111122' 
COMPS,ioos:station:USF.COMPS:FHP:1,2017-08-01T18:24:00Z,28.1530,-82.8010,10.0,3.96,327.81,4.7,'1111122,1111122,1111122' 
COMPS,ioos:station:USF.COMPS:FHP:1,2017-08-01T18:30:00Z,28.1530,-82.8010,10.0,4.0,329.04,4.5,'1111122,1111122,1111122' 
COMPS,ioos:station:USF.COMPS:FHP:1,2017-08-01T18:36:00Z,28.1530,-82.8010,10.0,4.06,326.84,4.5,'1111122,1111122,1111122' 
COMPS,ioos:station:USF.COMPS:FHP:1,2017-08-01T18:42:00Z,28.1530,-82.8010,10.0,4.16,324.22,4.8,'1111122,1111122,1111122' 
COMPS,ioos:station:USF.COMPS:FHP:1,2017-08-01T18:48:00Z,28.1530,-82.8010,10.0,4.02,321.14,5.39,'1111122,1111122,1111122' 
COMPS,ioos:station:USF.COMPS:FHP:1,2017-08-01T18:54:00Z,28.1530,-82.8010,10.0,4.13,322.13,4.9,'1111122,1111122,1111122' 
COMPS,ioos:station:USF.COMPS:FHP:1,2017-08-01T19:00:00Z,28.1530,-82.8010,10.0,3.8,322.61,4.6,'1111122,1111122,1111122' 
COMPS,ioos:station:USF.COMPS:FHP:1,2017-08-01T19:06:00Z,28.1530,-82.8010,10.0,4.2,323.79,4.99,'1111122,1111122,1111122' 
COMPS,ioos:station:USF.COMPS:FHP:1,2017-08-01T19:12:00Z,28.1530,-82.8010,10.0,3.91,323.93,4.7,'1111122,1111122,1111122' 
COMPS,ioos:station:USF.COMPS:FHP:1,2017-08-01T19:18:00Z,28.1530,-82.8010,10.0,4.15,322.95,5.19,'1111122,1111122,1111122' 
COMPS,ioos:station:USF.COMPS:FHP:1,2017-08-01T19:24:00Z,28.1530,-82.8010,10.0,4.28,320.35,5.09,'1111122,1111122,1111122' 
COMPS,ioos:station:USF.COMPS:FHP:1,2017-08-01T19:30:00Z,28.1530,-82.8010,10.0,3.87,322.55,5.39,'1111122,1111122,1111122' 
COMPS,ioos:station:USF.COMPS:FHP:1,2017-08-01T19:36:00Z,28.1530,-82.8010,10.0,3.7,323.04,4.8,'1111122,1111122,1111122' 